, AK

(GMT )
Shemya

Weather History for PASY - November, 2012

Change the Weather History Date:

Tuesday, November 27, 2012

  Actual Average Record
Temperature  
Mean Temperature 38 °F -  
Max Temperature 42 °F 35 °F 46 °F (1960)
Min Temperature 34 °F 29 °F 21 °F (1969)
Degree Days  
Heating Degree Days 28    
Moisture  
Dew Point 32 °F    
Average Humidity 71    
Maximum Humidity 79    
Minimum Humidity 54    
Precipitation  
Precipitation 0.00 in - - ()
Sea Level Pressure  
Sea Level Pressure 30.28 in    
Wind  
Wind Speed 23 mph (SE)    
Max Wind Speed 40 mph    
Max Gust Speed 52 mph    
Visibility 10 miles    
Events      
Averages and records for this station are not official NWS values.
T = Trace of Precipitation, MM = Missing Value Source: NWS Daily Summary

Daily Weather History Graph

Daily Weather History Graph

Search for Another Location

Airport or City:

Trip Planner

Search our weather history database for the weather conditions in past years. The results will help you decide how hot, cold, wet, or windy it might be!

Date:

Astronomy

Nov. 26, 2012 Rise Set
Actual Time 10:06 AM HST 6:15 PM HST
Civil Twilight 9:26 AM HST 6:55 PM HST
Nautical Twilight 8:43 AM HST 7:38 PM HST
Astronomical Twilight 8:01 AM HST 8:19 PM HST
Moon 5:58 PM HST (11/27) 9:25 AM HST (11/27)
Length of Visible Light 9h 29m
Length of Day
8h 09m
Full, 100% of the Moon is Illuminated
Nov 27
Full
Nov 28
Full
Dec 6
Last Quarter
Dec 12
New
Dec 19
First Quarter

Hourly Weather History & Observations

Time (HST) Temp. Windchill Dew Point Humidity Pressure Visibility Wind Dir Wind Speed Gust Speed Precip Events Conditions
12:56 AM 39.0 °F 31.8 °F 27.0 °F 62% 30.41 in 10.0 mi South 11.5 mph - N/A   Clear
1:56 AM 39.0 °F 31.8 °F 28.0 °F 65% 30.42 in 10.0 mi SSE 11.5 mph - N/A   Clear
2:56 AM 39.0 °F 31.0 °F 28.9 °F 67% 30.39 in 10.0 mi SE 13.8 mph - N/A   Clear
3:56 AM 39.0 °F 29.9 °F 30.0 °F 70% 30.40 in 10.0 mi SE 17.3 mph - N/A   Clear
4:56 AM 39.0 °F 29.0 °F 30.0 °F 70% 30.40 in 10.0 mi SE 20.7 mph - N/A   Clear
5:56 AM 39.0 °F 28.3 °F 30.9 °F 73% 30.39 in 10.0 mi SE 24.2 mph - N/A   Clear
6:56 AM 39.0 °F 27.6 °F 30.9 °F 73% 30.37 in 10.0 mi SE 27.6 mph - N/A   Clear
7:15 AM 39.2 °F 28.0 °F 30.2 °F 70% 30.37 in 10.0 mi SE 26.5 mph - N/A   Mostly Cloudy
7:56 AM 39.0 °F 27.6 °F 30.9 °F 73% 30.37 in 10.0 mi SSE 27.6 mph 33.4 mph N/A   Mostly Cloudy
8:56 AM 39.9 °F 28.8 °F 30.9 °F 70% 30.37 in 10.0 mi SE 27.6 mph 32.2 mph N/A   Overcast
9:56 AM 39.9 °F 28.6 °F 30.9 °F 70% 30.36 in 10.0 mi SE 28.8 mph - N/A   Overcast
10:56 AM 39.9 °F 29.2 °F 30.9 °F 70% 30.34 in 10.0 mi ESE 25.3 mph - N/A   Partly Cloudy
11:56 AM 39.9 °F 28.4 °F 32.0 °F 73% 30.32 in 10.0 mi SE 29.9 mph - N/A   Clear
12:56 PM 41.0 °F 30.2 °F 32.0 °F 70% 30.31 in 10.0 mi ESE 27.6 mph - N/A   Clear
1:56 PM 39.9 °F 28.4 °F 33.1 °F 77% 30.28 in 10.0 mi ESE 29.9 mph 35.7 mph N/A   Scattered Clouds
2:56 PM 39.9 °F 28.6 °F 33.1 °F 77% 30.25 in 10.0 mi ESE 28.8 mph 36.8 mph N/A   Partly Cloudy
3:56 PM 39.9 °F 27.5 °F 33.1 °F 77% 30.20 in 10.0 mi ESE 35.7 mph 40.3 mph N/A   Partly Cloudy
5:56 PM 41.0 °F 29.1 °F 34.0 °F 76% 30.18 in 10.0 mi ESE 34.5 mph 41.4 mph N/A   Mostly Cloudy
6:56 PM 41.0 °F 28.5 °F 35.1 °F 79% 30.15 in 10.0 mi ESE 39.1 mph 44.9 mph N/A   Mostly Cloudy
7:56 PM 41.0 °F 28.3 °F 34.0 °F 76% 30.12 in 10.0 mi ESE 40.3 mph 51.8 mph N/A   Mostly Cloudy
8:56 PM 41.0 °F 28.5 °F 34.0 °F 76% 30.09 in 10.0 mi ESE 39.1 mph 47.2 mph N/A   Overcast
9:56 PM 41.0 °F 28.8 °F 33.1 °F 73% 30.07 in 10.0 mi ESE 36.8 mph 47.2 mph N/A   Overcast
10:56 PM 41.0 °F 28.3 °F 32.0 °F 70% 30.06 in 10.0 mi ESE 40.3 mph 51.8 mph N/A   Overcast
11:56 PM 42.1 °F 30.1 °F 33.1 °F 70% 30.05 in 10.0 mi ESE 38.0 mph 51.8 mph N/A   Overcast